EST,Max TemperatureF,Mean TemperatureF,Min TemperatureF,Max Dew PointF,MeanDew PointF,Min DewpointF,Max Humidity, Mean Humidity, Min Humidity, Max Sea Level PressureIn, Mean Sea Level PressureIn, Min Sea Level PressureIn, Max VisibilityMiles, Mean VisibilityMiles, Min VisibilityMiles, Max Wind SpeedMPH, Mean Wind SpeedMPH, Max Gust SpeedMPH,PrecipitationIn, CloudCover, Events, WindDirDegrees
2010-11-1,85,81,76,74,72,70,88,66,43,30.14,30.09,30.04,10,10,10,14,6,18,T,0,,88
2010-11-2,84,79,74,73,70,67,87,67,46,30.09,30.02,29.95,10,10,8,21,11,28,0.03,2,Rain,96
2010-11-3,83,78,73,75,73,69,91,83,74,29.96,29.85,29.78,10,8,0,26,12,33,1.51,5,Fog-Rain-Thunderstorm,130
2010-11-4,81,77,73,74,72,69,93,81,69,29.79,29.72,29.66,10,9,2,22,8,28,0.45,3,Rain,245
2010-11-5,77,72,67,70,61,52,90,72,53,30.04,29.84,29.69,10,10,9,25,15,35,T,5,Rain,343
2010-11-6,68,66,63,52,50,43,63,56,48,30.22,30.13,30.04,10,10,10,22,13,26,0.00,5,,16
2010-11-7,71,66,61,59,52,42,78,63,48,30.21,30.15,30.09,10,10,10,21,13,28,0.00,0,,16
2010-11-8,73,70,66,61,59,58,78,70,61,30.09,30.04,30.00,10,10,10,20,11,28,0.00,4,,24
2010-11-9,75,69,63,62,57,55,93,73,53,30.06,30.01,29.98,10,10,10,16,7,21,0.00,0,,27
2010-11-10,77,70,63,63,58,49,93,66,38,30.08,30.03,29.99,10,10,10,14,6,17,0.00,0,,28
2010-11-11,78,72,65,66,64,62,93,79,64,30.16,30.11,30.06,10,10,10,14,6,18,0.00,0,,25
2010-11-12,78,74,70,66,64,61,84,74,64,30.15,30.11,30.07,10,10,10,20,10,24,0.00,0,,27
2010-11-13,77,73,69,64,62,61,79,68,56,30.12,30.07,30.04,10,10,10,14,8,20,0.00,0,,27
2010-11-14,78,74,69,65,63,62,84,73,62,30.07,30.02,29.99,10,10,10,13,7,17,0.00,1,,29
2010-11-15,80,75,70,65,63,60,84,69,54,30.01,29.96,29.92,10,10,10,13,7,18,0.00,0,,97
2010-11-16,81,78,74,72,68,65,87,75,62,30.00,29.94,29.88,10,10,10,17,10,23,T,1,,154
2010-11-17,83,78,72,73,71,69,94,80,65,30.08,30.04,29.98,10,10,10,10,4,14,0.00,0,,76
2010-11-18,80,77,73,72,71,66,93,84,74,30.12,30.08,30.04,10,10,10,16,9,23,0.00,2,,12
2010-11-19,78,74,69,65,62,58,79,67,54,30.17,30.11,30.06,10,10,10,20,11,25,0.00,0,,42
2010-11-20,80,75,70,69,66,64,84,73,62,30.21,30.16,30.12,10,10,10,14,8,20,0.00,0,,51
2010-11-21,82,77,72,69,67,64,93,76,58,30.23,30.18,30.15,10,10,10,17,8,22,T,1,,62
2010-11-22,81,77,72,70,68,67,93,80,67,30.20,30.16,30.11,10,10,10,18,9,24,0.00,1,,64
2010-11-23,82,77,72,70,69,68,87,77,67,30.12,30.09,30.05,10,10,10,18,8,23,0.05,6,,64
2010-11-24,81,77,73,71,68,66,87,75,62,30.10,30.05,30.00,10,10,10,15,9,21,0.00,4,,69
2010-11-25,80,77,73,73,71,67,87,81,74,30.07,30.02,29.99,10,8,2,23,14,31,0.06,7,Rain,104
2010-11-26,80,76,72,73,72,70,94,82,69,30.03,29.99,29.96,10,8,2,22,10,25,0.78,6,Rain,142
2010-11-27,81,77,72,72,70,69,94,82,69,30.03,30.00,29.96,10,10,10,16,5,21,0.01,4,Rain,74
2010-11-28,79,75,71,72,70,67,93,80,67,30.08,30.04,30.00,10,10,8,16,7,21,0.04,5,Rain,75
2010-11-29,81,78,75,73,70,68,85,77,69,30.12,30.06,30.03,10,10,10,17,13,22,0.00,0,,108
2010-11-30,81,79,76,72,71,70,82,78,74,30.08,30.04,29.99,10,10,10,18,13,23,T,2,,129